Location: Juzet
(42.9779°N, 0.7597°E)
Time: 18:11:11
(UTC+00:00)

Cosmos 1975 Rocket - Pass Details

Date: 14 July 2020
Orbit: 605 x 633 km, 82.5° (Epoch: 12 August)

Event Time Altitude Azimuth Distance (km) Brightness Sun altitude
Rises 03:33:28 0° 351° (N) 2,908 7.0 -9.3°
Reaches altitude 10° 03:35:42 10° 351° (N) 2,002 6.1 -9.0°
Maximum altitude 03:40:09 89° 266° (W) 633 3.1 -8.4°
Drops below altitude 10° 03:44:36 10° 174° (S) 2,001 5.4 -7.8°
Sets 03:46:49 0° 174° (S) 2,907 6.2 -7.4°
